Overview Statistics Trail Chart Weather Telemetry Raw packets
 

This is the latest recevied weather packets stored in our database for station/object N0NB. If no packets are shown the sender has not sent any weather packets the latest 10 day(s).

<< 36 37 38 39 40 41 42 >>
Time Temp. Humidity Pressure Rain* Wind** Luminosity Snow
1788101416 28.33° C 61% 1008.7 hPa 0 mm - 428 W/m² -
1788100816 28.33° C 61% 1008.7 hPa 0 mm - 355 W/m² -
1788100216 27.78° C 61% 1008.6 hPa 0 mm - 356 W/m² -
1788099616 27.22° C 62% 1008.6 hPa 0 mm - 283 W/m² -
1788099016 27.22° C 61% 1008.4 hPa 0 mm - 157 W/m² -
1788098416 27.22° C 64% 1008.5 hPa 0 mm - 358 W/m² -
1788097816 26.11° C 65% 1008.5 hPa 0 mm - 159 W/m² -
1788097216 26.11° C 65% 1008.7 hPa 0 mm - 174 W/m² -
1788096616 25.56° C 65% 1008.5 hPa 0 mm - 101 W/m² -
1788096016 25.56° C 65% 1008.6 hPa 0 mm - 72 W/m² -
1788095416 25.56° C 65% 1008.7 hPa 0 mm - 46 W/m² -
1788094816 25.56° C 66% 1008.7 hPa 0 mm - 42 W/m² -
1788094216 25.56° C 65% 1009.1 hPa 0 mm - 34 W/m² -
1788093616 25.56° C 65% 1009.2 hPa 0 mm - 26 W/m² -
1788093016 25.56° C 65% 1009.1 hPa 0 mm - 23 W/m² -
1788092416 25.56° C 64% 1009.2 hPa 0 mm - 14 W/m² -
1788091816 25.56° C 64% 1009.4 hPa 0 mm - 9 W/m² -
1788091216 25.56° C 64% 1009.2 hPa 0 mm - 1 W/m² -
1788090616 25.56° C 65% 1009.2 hPa 0 mm - 0 W/m² -
1788090016 25.56° C 65% 1009.2 hPa 0 mm - 0 W/m² -
1788089416 25.56° C 65% 1009.4 hPa 0 mm - 0 W/m² -
1788088816 25.56° C 65% 1009.3 hPa 0 mm - 0 W/m² -
1788088216 25.56° C 64% 1009.2 hPa 0 mm - 0 W/m² -
1788087616 25.56° C 64% 1009.3 hPa 0 mm - 0 W/m² -
1788087016 25.56° C 64% 1009.5 hPa 0 mm - 0 W/m² -

* Rain latest hour (hover to see other rain measurements)
** Current wind speed in m/s (hover to see current wind gust speed)